TWISTERF5 Weather Reports


time (UTC)temp
C
wind
direction
speed
KPH
gust
KPH
rain 1hr
cm
rain 24hr
cm
rain mn
cm
humidity
%
barometer
mb
20260507101015 5 185 4.8 8.0 0.00 1.14 0.00 88 1005.4
20260507100515 5 183 3.2 9.7 0.00 1.14 0.00 88 1005.3
20260507100042 5 155 4.8 14.5 0.00 1.14 0.00 88 1005.3
20260507095515 5 191 3.2 14.5 0.00 1.14 0.00 88 1005.1
20260507095015 5 168 4.8 14.5 0.00 1.14 0.00 88 1005.1
20260507094530 5 180 3.2 12.9 0.00 1.14 0.00 88 1005.1
20260507094014 5 206 6.4 12.9 0.00 1.14 0.00 88 1005.2
20260507093515 5 200 3.2 11.3 0.00 1.14 0.00 88 1005.2
20260507093035 5 195 4.8 11.3 0.00 1.14 0.00 88 1005.1
20260507092517 5 186 4.8 11.3 0.00 1.14 0.00 88 1004.9
20260507092017 5 160 4.8 11.3 0.00 1.14 0.00 88 1005.1
20260507091539 4 248 4.8 11.3 0.00 1.14 0.00 88 1005.2
20260507091014 5 184 4.8 12.9 0.00 1.14 0.00 87 1005.3
20260507090516 5 167 4.8 12.9 0.00 1.14 0.00 87 1005.4
20260507090032 5 189 1.6 11.3 0.00 1.14 0.00 87 1005.5
20260507085515 5 219 4.8 11.3 0.00 1.14 0.00 87 1005.4
20260507085013 5 152 4.8 11.3 0.00 1.14 0.00 87 1005.4
20260507084546 5 202 4.8 14.5 0.00 1.14 0.00 87 1005.5
20260507084016 5 178 3.2 14.5 0.00 1.14 0.00 87 1005.5
20260507083515 5 175 4.8 11.3 0.00 1.14 0.00 87 1005.4
20260507083030 5 236 4.8 11.3 0.00 1.14 0.00 87 1005.4
20260507082516 5 193 4.8 12.9 0.00 1.14 0.00 87 1005.4
20260507082014 5 172 3.2 12.9 0.00 1.14 0.00 87 1005.5
20260507081531 5 200 4.8 9.7 0.00 1.14 0.00 87 1005.5
20260507081017 5 200 4.8 11.3 0.00 1.14 0.00 87 1005.5
20260507080515 5 154 4.8 11.3 0.00 1.14 0.00 87 1005.5
20260507080030 5 188 3.2 8.0 0.00 1.14 0.00 87 1005.4
20260507075515 5 206 3.2 11.3 0.00 1.14 0.00 86 1005.4
20260507075020 5 180 4.8 19.3 0.00 1.14 0.00 87 1005.4
20260507074530 5 118 3.2 19.3 0.00 1.14 0.00 87 1005.4
20260507074015 5 173 4.8 11.3 0.00 1.14 0.00 87 1005.5
20260507073516 5 200 3.2 12.9 0.00 1.14 0.00 86 1005.5
20260507073032 5 244 3.2 16.1 0.00 1.14 0.00 86 1005.5
20260507072516 5 215 6.4 16.1 0.00 1.14 0.00 86 1005.5
20260507072016 5 165 4.8 14.5 0.00 1.14 0.00 87 1005.6
20260507071535 5 244 4.8 14.5 0.00 1.14 0.00 87 1005.6
20260507071017 5 207 4.8 12.9 0.00 1.14 0.00 87 1005.4
20260507070517 5 198 4.8 11.3 0.00 1.14 0.00 87 1005.5
20260507070030 5 0 3.2 14.5 0.00 1.14 0.00 87 1005.6
20260507065514 5 162 6.4 16.1 0.00 1.14 0.00 87 1005.5
20260507065016 5 200 3.2 16.1 0.00 1.14 0.00 87 1005.6
20260507064538 5 183 6.4 16.1 0.00 1.14 0.00 87 1005.6
20260507064015 5 158 3.2 11.3 0.00 1.14 0.00 87 1005.6
20260507063518 5 192 1.6 11.3 0.00 1.14 0.00 87 1005.7
20260507063031 5 184 3.2 14.5 0.00 1.14 0.00 87 1005.6
20260507062515 5 223 4.8 14.5 0.00 1.14 0.00 87 1005.7
20260507062015 5 171 3.2 9.7 0.00 1.14 0.00 87 1005.7
20260507061537 5 180 3.2 11.3 0.00 1.14 0.00 88 1005.8
20260507061016 5 204 4.8 11.3 0.00 1.14 0.00 88 1005.8
20260507060515 5 172 3.2 12.9 0.00 1.14 0.00 88 1005.9
20260507060037 5 180 3.2 12.9 0.00 1.14 0.00 88 1005.9
20260507055516 5 157 3.2 11.3 0.00 1.14 0.00 88 1006.1
20260507055015 5 181 4.8 11.3 0.00 1.14 0.00 88 1006.1
20260507054539 5 210 3.2 11.3 0.00 1.14 0.00 88 1006.1
20260507054020 5 0 6.4 11.3 0.00 1.14 0.00 88 1006.3
20260507053517 5 223 4.8 9.7 0.00 1.14 0.00 88 1006.4
20260507053032 5 205 1.6 12.9 0.00 1.14 0.00 88 1006.5
20260507052515 5 190 4.8 12.9 0.00 1.14 0.00 89 1006.6
20260507052016 5 173 3.2 14.5 0.00 1.14 0.00 89 1006.7
20260507051532 5 184 4.8 14.5 0.00 1.14 0.00 89 1006.7
20260507051021 5 208 1.6 9.7 0.00 1.14 0.00 89 1006.7
20260507050515 5 198 3.2 9.7 0.00 1.14 0.00 89 1006.8
20260507050058 5 184 3.2 8.0 0.00 1.14 0.00 89 1006.8
20260507045515 5 179 3.2 8.0 0.00 1.14 0.00 89 1006.8
20260507045015 5 188 1.6 8.0 0.00 1.14 0.00 89 1006.9
20260507044546 5 197 1.6 8.0 0.00 1.14 0.00 89 1006.9
20260507044015 5 178 3.2 8.0 0.00 1.14 0.00 89 1007.0
20260507043515 5 173 1.6 8.0 0.00 1.14 0.00 89 1007.0
20260507043032 5 208 3.2 8.0 0.00 1.14 0.00 89 1007.1
20260507042516 5 183 1.6 8.0 0.00 1.14 0.00 89 1007.1
20260507042015 5 182 3.2 8.0 0.00 1.14 0.00 89 1007.2
20260507041529 5 194 0.0 6.4 0.00 1.14 0.00 89 1007.2
20260507041015 5 188 1.6 6.4 0.00 1.14 0.00 89 1007.2
20260507040516 5 0 1.6 6.4 0.00 1.14 0.00 89 1007.2
20260507040029 5 180 1.6 4.8 0.00 1.14 0.00 89 1007.3
20260507035515 5 198 1.6 4.8 0.00 1.19 1.14 89 1007.3
20260507035015 5 0 0.0 3.2 0.00 1.19 1.14 89 1007.3
20260507034538 5 244 1.6 4.8 0.00 1.19 1.14 89 1007.3
20260507034018 5 0 0.0 4.8 0.00 1.19 1.14 89 1007.2
20260507033515 5 284 0.0 1.6 0.00 1.19 1.14 88 1007.2
20260507033038 5 0 0.0 1.6 0.00 1.19 1.14 88 1007.1
20260507032516 5 0 0.0 1.6 0.00 1.19 1.14 88 1007.2
20260507032015 5 0 0.0 1.6 0.00 1.19 1.14 88 1007.3
20260507031533 5 0 0.0 1.6 0.00 1.19 1.14 88 1007.4
20260507031016 5 0 0.0 1.6 0.00 1.19 1.14 88 1007.4
20260507030517 5 0 0.0 1.6 0.00 1.19 1.14 88 1007.4
20260507030036 5 0 0.0 1.6 0.00 1.19 1.14 88 1007.5
20260507025515 5 0 0.0 1.6 0.00 1.30 1.14 88 1007.4
20260507025018 5 0 0.0 1.6 0.00 1.30 1.14 88 1007.6
20260507024541 5 0 0.0 3.2 0.00 1.30 1.14 88 1007.7
20260507024015 5 0 0.0 3.2 0.00 1.30 1.14 88 1007.6
20260507023515 5 286 0.0 3.2 0.00 1.30 1.14 88 1007.7
20260507023032 5 0 0.0 1.6 0.00 1.30 1.14 88 1007.6
20260507022515 5 0 0.0 3.2 0.00 1.30 1.14 88 1007.5
20260507022015 5 0 0.0 3.2 0.00 1.30 1.14 88 1007.5
20260507021547 5 0 0.0 4.8 0.00 1.30 1.14 88 1007.9
20260507021015 6 0 0.0 4.8 0.00 1.30 1.14 88 1007.9
20260507020514 6 288 0.0 3.2 0.00 1.30 1.14 88 1007.8
20260507020032 6 289 1.6 3.2 0.00 1.30 1.14 88 1007.8
20260507015518 6 294 0.0 3.2 0.00 1.30 1.14 88 1007.6
20260507015019 6 0 0.0 3.2 0.00 1.30 1.14 87 1007.6
20260507014532 6 0 0.0 3.2 0.00 1.30 1.14 87 1007.6
20260507014020 6 294 0.0 3.2 0.00 1.30 1.14 87 1007.6
20260507013515 6 0 0.0 4.8 0.00 1.30 1.14 87 1007.5
20260507013036 6 0 0.0 4.8 0.00 1.30 1.14 87 1007.6
20260507012517 6 355 0.0 3.2 0.00 1.30 1.14 87 1007.5
20260507012015 6 355 0.0 1.6 0.00 1.30 1.14 87 1007.5
20260507011537 6 0 0.0 3.2 0.00 1.30 1.14 87 1007.4
20260507011017 6 0 0.0 3.2 0.00 1.30 1.14 87 1007.4
20260507010518 6 355 0.0 3.2 0.00 1.30 1.14 87 1007.4
20260507010043 6 0 0.0 3.2 0.00 1.30 1.14 86 1007.4
20260507005515 6 0 0.0 3.2 0.00 1.30 1.14 86 1007.4
20260507005024 6 355 0.0 3.2 0.00 1.30 1.14 86 1007.3
20260507004536 6 0 0.0 1.6 0.00 1.30 1.14 86 1007.3
20260507004018 6 0 0.0 1.6 0.00 1.30 1.14 86 1007.4
20260507003519 6 0 0.0 3.2 0.00 1.30 1.14 86 1007.4
20260507003036 6 0 0.0 3.2 0.00 1.30 1.14 86 1007.2
20260507002518 6 355 0.0 3.2 0.00 1.30 1.14 86 1007.2
20260507002018 6 0 0.0 1.6 0.00 1.30 1.14 86 1007.3
20260507001534 6 0 0.0 1.6 0.00 1.30 1.14 86 1007.3
20260507001015 6 0 0.0 1.6 0.00 1.30 1.14 85 1007.3
20260507000522 6 0 0.0 3.2 0.00 1.30 1.14 85 1007.2
20260507000035 6 0 0.0 3.2 0.00 1.30 1.14 85 1007.2
20260506235516 6 0 0.0 1.6 0.00 1.30 1.14 85 1007.2
20260506235020 6 355 0.0 3.2 0.00 1.30 1.14 85 1007.2
20260506234548 6 0 0.0 3.2 0.00 1.30 1.14 85 1007.2
20260506234018 7 0 0.0 3.2 0.00 1.30 1.14 85 1007.2
20260506233516 7 355 0.0 3.2 0.00 1.30 1.14 85 1007.1
20260506233036 7 0 0.0 3.2 0.00 1.30 1.14 85 1007.2
20260506232522 7 0 0.0 3.2 0.00 1.30 1.14 84 1007.2
20260506232017 7 355 0.0 3.2 0.00 1.30 1.14 84 1007.1
20260506231532 7 0 0.0 3.2 0.00 1.30 1.14 84 1007.0
20260506231016 7 0 0.0 3.2 0.00 1.30 1.14 84 1007.0
20260506230515 7 0 0.0 3.2 0.00 1.30 1.14 84 1007.0
20260506230035 7 355 0.0 3.2 0.00 1.30 1.14 85 1007.2
20260506225518 7 0 0.0 3.2 0.00 1.30 1.14 85 1007.0
20260506225015 7 0 0.0 1.6 0.00 1.30 1.14 84 1007.0
20260506224534 7 0 0.0 1.6 0.00 1.30 1.14 84 1007.1
20260506224019 7 0 0.0 3.2 0.00 1.30 1.14 84 1007.0
20260506223516 7 0 0.0 3.2 0.00 1.30 1.14 84 1007.0
20260506223033 7 0 0.0 0.0 0.00 1.30 1.14 84 1007.1
20260506222512 7 0 0.0 0.0 0.00 1.30 1.14 84 1007.1
20260506222016 7 0 0.0 0.0 0.00 1.30 1.14 84 1007.0
20260506221530 7 0 0.0 0.0 0.00 1.30 1.14 84 1007.0
20260506221016 7 0 0.0 0.0 0.00 1.30 1.14 84 1007.2
20260506220514 7 0 0.0 1.6 0.00 1.30 1.14 84 1007.3
20260506220036 7 0 0.0 1.6 0.00 1.30 1.14 83 1007.3
20260506215516 7 0 0.0 1.6 0.00 1.30 1.14 84 1007.3
20260506215015 7 0 0.0 3.2 0.00 1.30 1.14 84 1007.4
20260506214532 7 0 0.0 3.2 0.00 1.30 1.14 84 1007.3
20260506214016 7 0 0.0 3.2 0.00 1.30 1.14 84 1007.3
20260506213515 7 0 1.6 3.2 0.00 1.30 1.14 83 1007.3
20260506213032 7 0 0.0 3.2 0.00 1.30 1.14 84 1007.3
20260506212515 7 343 0.0 3.2 0.00 1.30 1.14 84 1007.4
20260506212018 7 0 0.0 3.2 0.00 1.30 1.14 83 1007.3
20260506211530 7 0 0.0 3.2 0.00 1.30 1.14 83 1007.2
20260506211015 7 0 0.0 3.2 0.00 1.30 1.14 83 1007.3
20260506210513 7 355 1.6 3.2 0.00 1.30 1.14 82 1007.2
20260506210036 7 0 0.0 3.2 0.00 1.30 1.14 82 1007.3
20260506205515 7 0 0.0 3.2 0.00 1.30 1.14 83 1007.2
20260506205018 7 17 0.0 3.2 0.00 1.30 1.14 83 1007.3
20260506204547 7 0 0.0 4.8 0.00 1.30 1.14 82 1007.2
20260506204017 7 304 1.6 6.4 0.00 1.30 1.14 83 1007.2
20260506203520 7 290 0.0 6.4 0.00 1.30 1.14 83 1007.2
20260506203032 7 0 1.6 6.4 0.00 1.30 1.14 82 1007.0
20260506202513 7 5 0.0 4.8 0.00 1.30 1.14 82 1007.2
20260506202017 7 5 1.6 4.8 0.00 1.30 1.14 82 1007.0
20260506201535 7 9 1.6 3.2 0.00 1.30 1.14 82 1007.1
20260506201014 7 0 0.0 3.2 0.00 1.30 1.14 82 1007.2
20260506200516 7 0 0.0 3.2 0.00 1.30 1.14 82 1007.2
20260506200034 7 0 0.0 1.6 0.00 1.30 1.14 83 1007.2
20260506195513 7 0 0.0 1.6 0.00 1.30 1.14 82 1007.2
20260506195019 7 0 0.0 3.2 0.00 1.30 1.14 81 1007.1
20260506194535 7 0 0.0 4.8 0.03 1.30 1.14 80 1007.3
20260506194015 7 84 1.6 4.8 0.03 1.30 1.14 83 1007.3
20260506193515 7 74 1.6 4.8 0.03 1.30 1.14 83 1007.2
20260506193035 7 5 1.6 4.8 0.03 1.30 1.14 85 1007.3
20260506192518 7 355 1.6 3.2 0.03 1.30 1.14 84 1007.5
20260506192016 7 355 1.6 3.2 0.03 1.30 1.14 84 1007.4
20260506191535 7 0 0.0 3.2 0.03 1.30 1.14 84 1007.4
20260506191018 7 0 0.0 3.2 0.03 1.30 1.14 85 1007.5
20260506190516 7 305 0.0 3.2 0.03 1.30 1.14 85 1007.6
20260506190034 7 305 0.0 3.2 0.03 1.30 1.14 85 1007.6
20260506185515 7 0 0.0 3.2 0.03 1.32 1.14 85 1007.6
20260506185015 7 0 0.0 4.8 0.03 1.32 1.14 86 1007.6
20260506184531 7 0 0.0 4.8 0.03 1.30 1.12 86 1007.6
20260506184018 7 280 0.0 4.8 0.03 1.30 1.12 86 1007.7
20260506183517 6 348 1.6 4.8 0.03 1.30 1.12 86 1007.6
20260506183040 6 0 0.0 6.4 0.03 1.30 1.12 86 1007.8
20260506182517 6 271 3.2 6.4 0.05 1.30 1.12 85 1007.8
20260506182016 6 13 1.6 4.8 0.05 1.30 1.12 87 1008.0
20260506181537 6 15 1.6 4.8 0.08 1.30 1.12 87 1007.9
20260506181019 6 308 0.0 4.8 0.08 1.30 1.12 87 1007.9
20260506180519 6 279 1.6 4.8 0.10 1.30 1.12 87 1008.0
20260506180035 6 283 1.6 4.8 0.10 1.30 1.12 86 1008.0
20260506175515 6 0 0.0 0.0 0.13 1.91 1.12 87 1008.1
20260506175015 6 0 0.0 3.2 0.15 1.91 1.12 86 1008.1
20260506174534 6 0 0.0 3.2 0.13 1.88 1.09 88 1008.0
20260506174020 6 0 0.0 3.2 0.15 1.88 1.09 88 1008.1
20260506173515 6 325 0.0 3.2 0.15 1.88 1.09 87 1008.1
20260506173032 6 0 0.0 3.2 0.15 1.85 1.07 86 1008.1
20260506172518 6 0 0.0 3.2 0.18 1.85 1.07 86 1008.2
20260506172015 6 0 0.0 3.2 0.18 1.85 1.07 86 1008.3
20260506171543 6 343 0.0 4.8 0.18 1.83 1.04 87 1008.4
20260506171018 6 337 0.0 4.8 0.20 1.83 1.04 87 1008.5
20260506170518 6 0 0.0 0.0 0.18 1.80 1.02 87 1008.5
20260506170043 6 0 0.0 0.0 0.20 1.80 1.02 86 1008.5
20260506165519 6 0 0.0 0.0 0.20 1.78 0.99 86 1008.6
20260506165016 6 0 0.0 4.8 0.18 1.75 0.97 86 1008.6
20260506164544 6 0 0.0 6.4 0.20 1.75 0.97 86 1008.7
20260506164017 6 290 1.6 6.4 0.20 1.73 0.94 86 1008.7
20260506163518 6 294 1.6 4.8 0.20 1.73 0.94 86 1008.7
20260506163031 6 0 0.0 3.2 0.20 1.70 0.91 86 1008.8
20260506162515 6 0 0.0 3.2 0.18 1.68 0.89 86 1008.7
20260506162015 6 0 1.6 3.2 0.20 1.68 0.89 86 1008.7
20260506161538 6 259 0.0 3.2 0.20 1.65 0.86 86 1008.7
20260506161016 6 286 0.0 4.8 0.18 1.63 0.84 87 1008.9
20260506160518 6 281 0.0 4.8 0.18 1.60 0.81 87 1008.9
20260506160042 6 0 0.0 4.8 0.20 1.60 0.81 87 1009.0
20260506155515 6 0 0.0 4.8 0.20 1.57 0.79 87 1009.0
20260506155016 6 271 1.6 4.8 0.23 1.57 0.79 86 1009.2
20260506154532 6 0 0.0 3.2 0.20 1.55 0.76 86 1009.3
20260506154016 6 279 0.0 4.8 0.20 1.52 0.74 86 1009.4
20260506153517 6 285 0.0 4.8 0.20 1.52 0.74 86 1009.4
20260506153029 6 294 1.6 4.8 0.20 1.47 0.71 86 1009.4
20260506152515 6 0 1.6 4.8 0.20 1.47 0.71 86 1009.4
20260506152017 6 300 1.6 4.8 0.20 1.47 0.69 86 1009.4
20260506151543 6 0 0.0 4.8 0.18 1.45 0.66 87 1009.3
20260506151015 6 298 0.0 4.8 0.18 1.42 0.64 86 1009.5
20260506150519 6 296 1.6 6.4 0.18 1.42 0.64 86 1009.4
20260506150033 6 0 1.6 6.4 0.18 1.40 0.61 85 1009.4
20260506145516 6 292 1.6 9.7 0.15 1.52 0.58 86 1009.5
20260506145019 6 286 3.2 9.7 0.15 1.47 0.56 86 1009.5
20260506144532 6 273 1.6 4.8 0.18 1.47 0.56 86 1009.6
20260506144025 6 283 1.6 4.8 0.15 1.47 0.53 86 1009.6
20260506143519 6 0 1.6 4.8 0.18 1.47 0.53 86 1009.6
20260506143043 6 254 1.6 6.4 0.18 1.45 0.51 86 1009.6
20260506142515 6 250 1.6 6.4 0.20 1.45 0.51 86 1009.5
20260506142015 6 258 3.2 6.4 0.20 1.42 0.48 87 1009.7
20260506141529 6 286 1.6 6.4 0.23 1.42 0.48 87 1009.7
20260506141016 6 277 1.6 8.0 0.20 1.40 0.46 86 1009.6
20260506140515 6 246 3.2 8.0 0.23 1.40 0.46 86 1009.7
20260506140036 6 280 1.6 11.3 0.20 1.37 0.43 86 1009.7
20260506135515 6 0 3.2 11.3 0.23 1.45 0.43 86 1009.7
20260506135018 6 282 3.2 9.7 0.20 1.42 0.41 86 1009.7
20260506134531 6 277 3.2 9.7 0.18 1.40 0.38 86 1009.6
20260506134014 6 276 1.6 4.8 0.20 1.40 0.38 86 1009.5
20260506133515 6 292 0.0 6.4 0.18 1.37 0.36 87 1009.5
20260506133031 6 0 0.0 9.7 0.18 1.32 0.33 86 1009.6
20260506132518 6 305 1.6 11.3 0.18 1.32 0.30 85 1009.4
20260506132014 6 297 3.2 11.3 0.15 1.30 0.28 85 1009.5
20260506131532 6 271 3.2 6.4 0.15 1.27 0.25 86 1009.5
20260506131019 6 282 1.6 6.4 0.18 1.27 0.25 85 1009.3
20260506130519 6 236 1.6 6.4 0.15 1.24 0.23 85 1009.3
20260506130030 6 278 1.6 6.4 0.15 1.24 0.23 85 1009.2
20260506125515 7 287 1.6 6.4 0.15 1.22 0.20 85 1009.2
20260506125018 7 277 1.6 6.4 0.15 1.22 0.20 85 1009.3
20260506124529 7 304 1.6 6.4 0.15 1.19 0.18 86 1009.2
20260506124015 7 303 1.6 6.4 0.15 1.19 0.18 86 1009.2
20260506123515 7 291 1.6 6.4 0.15 1.19 0.18 85 1009.2
20260506123034 7 304 3.2 6.4 0.13 1.17 0.15 85 1009.3
20260506122514 7 300 1.6 6.4 0.10 1.14 0.13 85 1009.4
20260506122013 7 0 1.6 4.8 0.08 1.12 0.10 85 1009.5
20260506121533 7 233 0.0 3.2 0.10 1.12 0.10 85 1009.6
20260506121017 7 279 0.0 6.4 0.08 1.09 0.08 84 1009.7
20260506120518 7 308 1.6 6.4 0.08 1.09 0.08 84 1009.7
20260506120032 7 279 0.0 4.8 0.05 1.07 0.05 84 1009.8
20260506115515 7 284 1.6 6.4 0.05 1.07 0.05 84 1009.8
20260506115014 7 263 0.0 6.4 0.03 1.04 0.03 84 1009.7
20260506114540 7 301 1.6 8.0 0.03 1.04 0.03 84 1009.6
20260506114015 7 297 1.6 8.0 0.03 1.04 0.03 84 1009.5
20260506113515 7 281 1.6 9.7 0.03 1.04 0.03 84 1009.5
20260506113030 7 305 1.6 9.7 0.03 1.04 0.03 84 1009.4
20260506112516 7 292 1.6 9.7 0.03 1.04 0.03 84 1009.2
20260506112012 7 261 1.6 9.7 0.03 1.04 0.03 84 1009.2
20260506111537 7 271 0.0 9.7 0.00 1.02 0.00 84 1009.3
20260506111015 7 239 0.0 9.7 0.00 1.02 0.00 84 1009.2
20260506110520 7 0 1.6 9.7 0.00 1.02 0.00 84 1009.1
20260506110035 7 252 0.0 11.3 0.00 1.02 0.00 84 1009.0
20260506105515 7 267 3.2 11.3 0.00 1.02 0.00 84 1009.1
20260506105014 7 213 1.6 11.3 0.00 1.02 0.00 84 1009.1
20260506104533 7 276 3.2 12.9 0.00 1.02 0.00 83 1009.0
20260506104014 7 169 3.2 12.9 0.00 1.02 0.00 83 1009.0
20260506103516 7 244 3.2 14.5 0.00 1.02 0.00 83 1008.9
20260506103030 7 205 3.2 14.5 0.00 1.02 0.00 83 1009.0
20260506102517 7 198 4.8 12.9 0.00 1.02 0.00 83 1009.0
20260506102016 7 165 1.6 12.9 0.00 1.02 0.00 83 1008.8
20260506101547 7 258 3.2 11.3 0.00 1.02 0.00 82 1008.7